Location: Wapato
(46.4478°N, 120.4212°W)
Time: 10:11:48
(UTC+00:00)

Injun/Solrad 3 - Pass Details

Date: 17 May 2026
Orbit: 867 x 989 km, 66.8° (Epoch: 10 June)

Event Time Altitude Azimuth Distance (km) Brightness Sun altitude
Rises 09:22:11 0° 316° (NW) 3,692 11.4 -21.5°
Reaches altitude 10° 09:25:19 10° 302° (WNW) 2,749 10.5 -21.3°
Maximum altitude 09:30:04 22° 255° (WSW) 2,003 9.3 -21.0°
Enters shadow 09:30:10 22° 253° (WSW) 2,003 9.3 -21.0°
Drops below altitude 10° 09:34:49 10° 207° (SSW) 2,738 - -20.6°
Sets 09:37:56 0° 192° (SSW) 3,674 - -20.4°
